User: anonymous   Login
Location: Passau
(48.5830°N, 13.4830°E)
Time: 00:24:23
(UTC+02:00)
Language:

Transit 2A - Orbit

View from above orbital plane
View from above orbital plane
View from above satellite
View from above satellite

Ground track
Ground track

The orbit data is extracted from the following two-line orbital elements,

1 00045U 60007A   21209.51546027 -.00000071  00000-0  91012-5 0  9993
2 00045  66.6951  30.8088 0252829  18.4444 342.5618 14.33728179124049
Epoch (UTC): 28 July 2021 12:22:15
Eccentricity: 0.0252829
inclination: 66.6951°
perigee height: 598 km
apogee height: 960 km
right ascension of ascending node: 30.8088°
argument of perigee: 18.4444°
revolutions per day: 14.33728179
mean anomaly at epoch: 342.5618°
orbit number at epoch: 12404

The dashed part of the orbit path shows where the satellite is in the earth's shadow,  

DLR